| time (UTC) | temp F | wind direction | speed MPH | gust MPH | rain 1hr in | rain 24hr in | rain mn in | humidity % | barometer mb |
| 20260905103343 | 70 | 271 | 10.0 | 18.0 | 0.00 | 0.55 | 0.00 | 63 | 1022.1 |
| 20260905102430 | 71 | 208 | 5.0 | 20.0 | 0.00 | 0.55 | 0.00 | 63 | 1022.0 |
| 20260905101340 | 70 | 264 | 9.0 | 18.0 | 0.00 | 0.55 | 0.00 | 64 | 1021.8 |
| 20260905100335 | 69 | 301 | 7.0 | 17.0 | 0.00 | 0.55 | 0.00 | 66 | 1021.7 |
| 20260905095341 | 69 | 208 | 11.0 | 19.0 | 0.00 | 0.55 | 0.00 | 65 | 1021.6 |
| 20260905094331 | 68 | 305 | 11.0 | 16.0 | 0.00 | 0.55 | 0.00 | 68 | 1021.6 |
| 20260905093418 | 67 | 208 | 8.0 | 16.0 | 0.00 | 0.55 | 0.00 | 70 | 1021.5 |
| 20260905092404 | 68 | 208 | 8.0 | 17.0 | 0.00 | 0.55 | 0.00 | 69 | 1021.3 |
| 20260905091338 | 68 | 208 | 9.0 | 17.0 | 0.00 | 0.55 | 0.00 | 70 | 1021.2 |
| 20260905090344 | 68 | 257 | 7.0 | 16.0 | 0.00 | 0.55 | 0.00 | 71 | 1021.0 |
| 20260905085330 | 67 | 252 | 8.0 | 20.0 | 0.00 | 0.55 | 0.00 | 72 | 1020.9 |
| 20260905084328 | 67 | 291 | 9.0 | 18.0 | 0.00 | 0.55 | 0.00 | 73 | 1020.8 |
| 20260905083337 | 66 | 310 | 8.0 | 19.0 | 0.00 | 0.55 | 0.00 | 74 | 1020.7 |
| 20260905082359 | 67 | 290 | 4.0 | 17.0 | 0.00 | 0.55 | 0.00 | 75 | 1020.5 |
| 20260905081339 | 66 | 208 | 8.0 | 19.0 | 0.00 | 0.55 | 0.00 | 75 | 1020.3 |
| 20260905080342 | 65 | 208 | 10.0 | 15.0 | 0.00 | 0.55 | 0.00 | 75 | 1020.3 |
| 20260905075403 | 65 | 264 | 7.0 | 15.0 | 0.00 | 0.55 | 0.00 | 76 | 1020.1 |
| 20260905074329 | 65 | 228 | 5.0 | 13.0 | 0.00 | 0.55 | 0.00 | 77 | 1020.0 |
| 20260905073412 | 64 | 208 | 7.0 | 20.0 | 0.00 | 0.55 | 0.00 | 77 | 1019.9 |
| 20260905072403 | 64 | 208 | 8.0 | 15.0 | 0.00 | 0.55 | 0.00 | 79 | 1019.8 |
| 20260905071347 | 64 | 294 | 3.0 | 13.0 | 0.00 | 0.55 | 0.00 | 81 | 1019.7 |
| 20260905070330 | 64 | 208 | 6.0 | 14.0 | 0.00 | 0.55 | 0.00 | 81 | 1019.6 |
| 20260905065339 | 63 | 208 | 6.0 | 15.0 | 0.00 | 0.55 | 0.00 | 81 | 1019.4 |
| 20260905064354 | 63 | 277 | 7.0 | 13.0 | 0.00 | 0.55 | 0.00 | 82 | 1019.4 |
| 20260905062328 | 62 | 275 | 6.0 | 12.0 | 0.00 | 0.55 | 0.00 | 83 | 1019.1 |
| 20260905061345 | 62 | 270 | 3.0 | 13.0 | 0.00 | 0.55 | 0.00 | 85 | 1019.1 |
| 20260905060339 | 61 | 304 | 5.0 | 10.0 | 0.00 | 0.55 | 0.00 | 85 | 1018.9 |
| 20260905055324 | 61 | 304 | 4.0 | 9.0 | 0.00 | 0.55 | 0.00 | 86 | 1019.0 |
| 20260905054403 | 61 | 261 | 3.0 | 8.0 | 0.00 | 0.55 | 0.00 | 86 | 1018.8 |
| 20260905053400 | 61 | 275 | 2.0 | 8.0 | 0.00 | 0.55 | 0.00 | 87 | 1018.6 |
| 20260905052329 | 60 | 273 | 4.0 | 10.0 | 0.00 | 0.55 | 0.00 | 87 | 1018.5 |
| 20260905051329 | 60 | 277 | 3.0 | 6.0 | 0.00 | 0.55 | 0.00 | 87 | 1018.4 |
| 20260905050339 | 60 | 292 | 2.0 | 9.0 | 0.00 | 0.55 | 0.00 | 86 | 1018.3 |
| 20260905045422 | 60 | 257 | 1.0 | 4.0 | 0.00 | 0.55 | 0.00 | 86 | 1018.2 |
| 20260905044335 | 60 | 282 | 2.0 | 8.0 | 0.00 | 0.55 | 0.00 | 86 | 1018.1 |
| 20260905043324 | 60 | 273 | 3.0 | 8.0 | 0.00 | 0.55 | 0.00 | 86 | 1018.0 |
| 20260905042349 | 60 | 288 | 3.0 | 8.0 | 0.00 | 0.55 | 0.00 | 86 | 1018.0 |
| 20260905041326 | 59 | 271 | 2.0 | 4.0 | 0.00 | 0.55 | 0.00 | 85 | 1018.0 |
| 20260905040330 | 60 | 227 | 2.0 | 8.0 | 0.00 | 0.55 | 0.00 | 84 | 1018.0 |
| 20260905035321 | 60 | 241 | 3.0 | 5.0 | 0.00 | 0.55 | 0.00 | 84 | 1017.9 |
| 20260905034348 | 60 | 279 | 2.0 | 8.0 | 0.00 | 0.55 | 0.00 | 84 | 1017.8 |
| 20260905033344 | 60 | 316 | 2.0 | 5.0 | 0.00 | 0.55 | 0.00 | 83 | 1017.8 |
| 20260905032358 | 60 | 270 | 2.0 | 5.0 | 0.00 | 0.55 | 0.00 | 83 | 1017.7 |
| 20260905031318 | 60 | 242 | 1.0 | 4.0 | 0.00 | 0.55 | 0.00 | 81 | 1017.7 |
| 20260905030357 | 60 | 264 | 1.0 | 3.0 | 0.00 | 0.55 | 0.00 | 81 | 1017.6 |
| 20260905025327 | 61 | 257 | 1.0 | 4.0 | 0.00 | 0.55 | 0.00 | 81 | 1017.3 |
| 20260905024354 | 61 | 208 | 2.0 | 5.0 | 0.00 | 0.55 | 0.00 | 80 | 1017.3 |
| 20260905023339 | 61 | 275 | 1.0 | 7.0 | 0.00 | 0.55 | 0.00 | 80 | 1017.3 |
| 20260905022338 | 61 | 266 | 2.0 | 8.0 | 0.00 | 0.55 | 0.00 | 80 | 1017.4 |
| 20260905021320 | 61 | 275 | 2.0 | 6.0 | 0.00 | 0.55 | 0.00 | 79 | 1017.3 |
| 20260905020350 | 61 | 277 | 3.0 | 8.0 | 0.00 | 0.55 | 0.00 | 79 | 1017.2 |
| 20260905015338 | 62 | 299 | 4.0 | 9.0 | 0.00 | 0.55 | 0.00 | 81 | 1017.2 |
| 20260905014326 | 62 | 292 | 3.0 | 6.0 | 0.00 | 0.55 | 0.00 | 79 | 1017.1 |
| 20260905013327 | 62 | 283 | 4.0 | 7.0 | 0.00 | 0.55 | 0.00 | 78 | 1017.0 |
| 20260905012414 | 62 | 270 | 1.0 | 6.0 | 0.00 | 0.55 | 0.00 | 77 | 1017.1 |
| 20260905011325 | 62 | 296 | 3.0 | 10.0 | 0.00 | 0.55 | 0.00 | 77 | 1017.0 |
| 20260905005340 | 63 | 285 | 3.0 | 8.0 | 0.00 | 0.55 | 0.00 | 76 | 1016.9 |
| 20260905004325 | 63 | 289 | 4.0 | 10.0 | 0.00 | 0.55 | 0.00 | 76 | 1017.0 |
| 20260905003325 | 63 | 300 | 4.0 | 10.0 | 0.00 | 0.55 | 0.00 | 76 | 1016.9 |
| 20260905002324 | 63 | 292 | 5.0 | 10.0 | 0.00 | 0.55 | 0.00 | 76 | 1016.9 |
| 20260905001357 | 63 | 292 | 6.0 | 12.0 | 0.00 | 0.55 | 0.00 | 76 | 1016.9 |
| 20260905000349 | 63 | 271 | 4.0 | 12.0 | 0.00 | 0.55 | 0.00 | 77 | 1016.8 |
| 20260904235343 | 63 | 296 | 3.0 | 6.0 | 0.00 | 0.55 | 0.00 | 76 | 1016.8 |
| 20260904234327 | 63 | 302 | 3.0 | 11.0 | 0.00 | 0.55 | 0.00 | 76 | 1016.7 |
| 20260904233402 | 63 | 286 | 4.0 | 10.0 | 0.00 | 0.55 | 0.00 | 76 | 1016.5 |
| 20260904232350 | 63 | 294 | 3.0 | 8.0 | 0.00 | 0.55 | 0.00 | 76 | 1016.6 |
| 20260904231329 | 63 | 284 | 4.0 | 8.0 | 0.00 | 0.55 | 0.00 | 75 | 1016.5 |
| 20260904230332 | 63 | 294 | 3.0 | 8.0 | 0.00 | 0.55 | 0.00 | 74 | 1016.5 |
| 20260904225323 | 63 | 281 | 3.0 | 12.0 | 0.00 | 0.55 | 0.00 | 74 | 1016.5 |
| 20260904224321 | 64 | 277 | 3.0 | 11.0 | 0.00 | 0.55 | 0.00 | 74 | 1016.4 |
| 20260904223356 | 64 | 273 | 4.0 | 11.0 | 0.00 | 0.55 | 0.00 | 73 | 1016.4 |
| 20260904222337 | 64 | 292 | 4.0 | 11.0 | 0.00 | 0.55 | 0.00 | 73 | 1016.4 |
| 20260904221320 | 64 | 292 | 5.0 | 13.0 | 0.00 | 0.55 | 0.00 | 73 | 1016.3 |
| 20260904220326 | 64 | 294 | 5.0 | 13.0 | 0.00 | 0.55 | 0.00 | 72 | 1016.2 |
| 20260904215323 | 64 | 208 | 6.0 | 13.0 | 0.00 | 0.55 | 0.11 | 72 | 1016.2 |
| 20260904214325 | 64 | 288 | 5.0 | 12.0 | 0.00 | 0.55 | 0.11 | 73 | 1016.1 |
| 20260904213321 | 64 | 296 | 5.0 | 15.0 | 0.00 | 0.55 | 0.11 | 73 | 1016.1 |
| 20260904212321 | 64 | 282 | 5.0 | 12.0 | 0.00 | 0.55 | 0.11 | 73 | 1015.9 |
| 20260904211355 | 65 | 208 | 6.0 | 11.0 | 0.00 | 0.55 | 0.11 | 72 | 1015.9 |
| 20260904210332 | 65 | 292 | 4.0 | 9.0 | 0.00 | 0.55 | 0.11 | 71 | 1015.8 |
| 20260904205336 | 65 | 292 | 5.0 | 13.0 | 0.00 | 0.55 | 0.11 | 70 | 1015.8 |
| 20260904204326 | 65 | 208 | 7.0 | 15.0 | 0.00 | 0.55 | 0.11 | 70 | 1015.8 |
| 20260904203322 | 65 | 287 | 6.0 | 14.0 | 0.00 | 0.55 | 0.11 | 71 | 1015.7 |
| 20260904202340 | 65 | 185 | 6.0 | 12.0 | 0.00 | 0.55 | 0.11 | 72 | 1015.6 |
| 20260904201349 | 65 | 267 | 6.0 | 17.0 | 0.00 | 0.55 | 0.11 | 72 | 1015.6 |
| 20260904200324 | 65 | 280 | 7.0 | 13.0 | 0.00 | 0.55 | 0.11 | 72 | 1015.5 |
| 20260904195335 | 66 | 285 | 5.0 | 11.0 | 0.00 | 0.55 | 0.11 | 72 | 1015.4 |
| 20260904194338 | 66 | 277 | 7.0 | 14.0 | 0.00 | 0.55 | 0.11 | 71 | 1015.3 |
| 20260904193336 | 66 | 208 | 6.0 | 13.0 | 0.00 | 0.55 | 0.11 | 71 | 1015.2 |
| 20260904192345 | 66 | 290 | 5.0 | 15.0 | 0.00 | 0.55 | 0.11 | 70 | 1015.1 |
| 20260904191354 | 66 | 319 | 6.0 | 12.0 | 0.00 | 0.55 | 0.11 | 70 | 1014.9 |
| 20260904190331 | 66 | 306 | 7.0 | 15.0 | 0.00 | 0.55 | 0.11 | 70 | 1014.9 |
| 20260904185329 | 66 | 280 | 9.0 | 16.0 | 0.00 | 0.55 | 0.11 | 72 | 1014.6 |
| 20260904184325 | 66 | 288 | 7.0 | 12.0 | 0.00 | 0.55 | 0.11 | 73 | 1014.6 |
| 20260904183326 | 66 | 298 | 7.0 | 13.0 | 0.00 | 0.55 | 0.11 | 73 | 1014.5 |
| 20260904182327 | 66 | 267 | 8.0 | 14.0 | 0.00 | 0.55 | 0.11 | 73 | 1014.4 |
| 20260904181338 | 66 | 290 | 8.0 | 16.0 | 0.00 | 0.55 | 0.11 | 74 | 1014.2 |
| 20260904180349 | 66 | 208 | 6.0 | 14.0 | 0.00 | 0.55 | 0.11 | 74 | 1014.3 |
| 20260904175339 | 67 | 306 | 5.0 | 17.0 | 0.00 | 0.55 | 0.11 | 73 | 1014.3 |
| 20260904174353 | 67 | 288 | 8.0 | 15.0 | 0.00 | 0.55 | 0.11 | 73 | 1014.2 |
| 20260904173338 | 67 | 274 | 7.0 | 19.0 | 0.00 | 0.55 | 0.11 | 72 | 1014.0 |
| 20260904172328 | 67 | 208 | 11.0 | 18.0 | 0.00 | 0.55 | 0.11 | 71 | 1013.8 |
| 20260904171344 | 67 | 256 | 9.0 | 15.0 | 0.00 | 0.55 | 0.11 | 71 | 1013.7 |
| 20260904170329 | 67 | 282 | 11.0 | 20.0 | 0.00 | 0.55 | 0.11 | 71 | 1013.8 |
| 20260904165323 | 67 | 208 | 9.0 | 18.0 | 0.00 | 0.55 | 0.11 | 71 | 1013.7 |
| 20260904164346 | 67 | 278 | 9.0 | 16.0 | 0.00 | 0.55 | 0.11 | 72 | 1013.4 |
| 20260904163328 | 67 | 208 | 8.0 | 23.0 | 0.00 | 0.55 | 0.11 | 73 | 1013.3 |
| 20260904162354 | 68 | 208 | 10.0 | 20.0 | 0.00 | 0.55 | 0.11 | 76 | 1013.1 |
| 20260904161337 | 68 | 287 | 10.0 | 19.0 | 0.00 | 0.55 | 0.11 | 77 | 1013.0 |
| 20260904160336 | 68 | 300 | 7.0 | 16.0 | 0.00 | 0.55 | 0.11 | 77 | 1013.0 |
| 20260904155338 | 68 | 267 | 8.0 | 15.0 | 0.00 | 0.55 | 0.11 | 76 | 1013.0 |
| 20260904154412 | 68 | 297 | 8.0 | 19.0 | 0.00 | 0.55 | 0.11 | 77 | 1013.0 |
| 20260904153328 | 68 | 300 | 10.0 | 17.0 | 0.00 | 0.55 | 0.11 | 77 | 1013.0 |